Regional Weather Roundup
Issued by NWS

Home | Current Version | Previous Version | Graphics & Text | Print | Product List | Glossary On
Versions: 1 2 3 4 5 6 7 8 9 10 11 12 13 14 15 16 17 18 19 20 21 22 23 24 25 26 27 28 29 30 31 32 33 34 35 36 37 38 39 40 41 42 43 44 45 46 47 48 49 50
058
ASUS43 KLOT 231308
RWRIL

ILLINOIS REGIONAL WEATHER ROUNDUP
NATIONAL WEATHER SERVICE CHICAGO/ROMEOVILLE IL
800 AM CDT FRI JUN 23 2017

NOTE: "FAIR" INDICATES FEW OR NO CLOUDS BELOW 12,000 FEET WITH NO
SIGNIFICANT WEATHER AND/OR OBSTRUCTIONS TO VISIBILITY.

* THESE STATIONS ARE NOT UNDER NWS QUALITY CONTROL. THEY ALSO MAY NOT
  REPORT WEATHER SUCH AS PRECIPITATION OR FOG.

ILZ001-002-007-009-015-016-024-231400-
NORTHWEST ILLINOIS

CITY           SKY/WX    TMP DP  RH WIND       PRES   REMARKS
MOLINE         CLOUDY    70  63  78 NE7       29.73R
STERLING*      CLOUDY    67  65  93 N5        29.74R
SAVANNA*       CLOUDY    67  63  87 N6        29.75R
$$

ILZ003-004-008-010-011-017-018-231400-
NORTH CENTRAL ILLINOIS

CITY           SKY/WX    TMP DP  RH WIND       PRES   REMARKS
ROCKFORD       CLOUDY    68  63  84 N5        29.73R
FREEPORT*      CLOUDY    66  62  89 NW7       29.75R
ROCHELLE*      CLOUDY    67  64  91 N6        29.73S
DE KALB*       PTSUNNY   67  63  88 N8        29.73R
PERU*          CLOUDY    67  65  92 N10G16    29.72R
$$

ILZ005-006-012>014-019>023-231400-
NORTHEAST ILLINOIS

CITY           SKY/WX    TMP DP  RH WIND       PRES   REMARKS
CHICAGO-OHARE  CLOUDY    68  63  84 NE9       29.70R
CHICAGO-MIDWAY CLOUDY    69  67  93 NW8       29.70R
AURORA         CLOUDY    68  65  90 N9        29.71R
LANSING*       CLOUDY    68  66  93 SW7       29.70R
JOLIET*        CLOUDY    70  69  97 NW3       29.70S
WAUKEGAN       CLOUDY    67  65  93 CALM      29.69R
DUPAGE AIRPORT CLOUDY    68  66  93 N8        29.71R
WHEELING       CLOUDY    67  65  93 N5        29.72R
MORRIS*        CLOUDY    68  67  94 NW5       29.69S
ROMEOVILLE*    CLOUDY    68  65  90 NW8       29.70R
NORTHERLY ISL    N/A     66  64  93 CALM        N/A
$$

LMZ740>746-231400-
SOUTHERN LAKE MICHIGAN

STATION/POSITION SKY/WX   TEMP    WIND        PRES    VSBY  WAVE
                          AIR SEA DIR/SP/G                  HT/PER
                          (F)     (DEG/KT/KT) (MB)    (MI)  (FT/S)
SOUTHERN BUOY              62 61  340/ 10/ 12 1004.4          1/ 4
WILMETTE HARBOR            65 63  320/  4/  4   N/A           1/ 3
HARRISON CRIB              66     310/  7/  8   N/A
BURNHAM HARBOR             66                   N/A
CALUMET HARBOR             66     320/  4/  5 1004.8R
BURNS HARBOR               66     220/  6/  7 1005.4F
MICHIGAN CITY              65     260/  5/  6   N/A
MICHIGAN CITY 6N           66 67  280/  2/  6   N/A           1/ 3
ST. JOSEPH                 66 68  360/  8/ 10 1004.6          2/ 3
$$

ILZ025>027-034>036-040-047-049-050-058-095>099-231400-
WEST-CENTRAL ILLINOIS

CITY           SKY/WX    TMP DP  RH WIND       PRES   REMARKS
QUINCY         LGT RAIN  71  69  93 NW10      29.72R
GALESBURG*     CLOUDY    68  65  90 N13       29.74R
MACOMB*        CLOUDY    70  69  96 N8        29.75S
JACKSONVILLE*  PTSUNNY   78  73  84 NW9       29.69F HX  80
PITTSFIELD*    LGT RAIN  73  71  94 NW8       29.70F
$$

ILZ028>032-037-038-041>044-048-051>054-059>061-231400-
CENTRAL ILLINOIS

CITY           SKY/WX    TMP DP  RH WIND       PRES   REMARKS
PONTIAC        CLOUDY    68  68  99 NW6       29.71R
BLOOMINGTON    CLOUDY    75  72  90 W16       29.72R
DECATUR        TSTM      73  71  93 N6G23     29.71R FOG
PEORIA         LGT RAIN  70  69  97 N7        29.71R
LACON*         RAIN      68  67  99 N5        29.71R
LINCOLN*       LGT RAIN  76  75  99 W3        29.70R
SPRINGFIELD    CLOUDY    77  76  96 W9        29.70S
TAYLORVILLE    CLOUDY    76  74  95 SW6       29.71R
$$

ILZ033-039-045-046-055>057-062-063-231400-
EAST-CENTRAL ILLINOIS

CITY           SKY/WX    TMP DP  RH WIND       PRES   REMARKS
CHAMPAIGN      LGT RAIN  77  73  87 SW12      29.71R
RANTOUL*       HVY RAIN  75  73  93 N12       29.71R
MATTOON        CLOUDY    76  75  97 SW7       29.71R
PARIS*         CLOUDY    76  74  94 S10G17    29.72S
$$

ILZ079-100>102-231400-
SOUTHWEST ILLINOIS

CITY           SKY/WX    TMP DP  RH WIND       PRES   REMARKS
ALTON          RAIN      75  73  94 SW7       29.72R
BELLEVILLE     PTSUNNY   77  74  91 S5        29.72S
CAHOKIA*       CLOUDY    78  73  84 S3        29.71F HX  81
SPARTA*        CLOUDY    74  73  98 CALM      29.72F
$$

ILZ064>066-069>071-074>076-080>082-084>086-088>090-092>094-231400-
SOUTH-CENTRAL ILLINOIS

CITY           SKY/WX    TMP DP  RH WIND       PRES   REMARKS
CARBONDALE     RAIN      75  75 100 SW5       29.72S FOG
CAIRO*         RAIN      75  73  94 S10G16    29.72R
EFFINGHAM*     CLOUDY    77  76  95 S7        29.73F
MARION         RAIN      75  75 100 S5        29.74R
MT. VERNON     TSTM      73  72  94 W12       29.73S FOG
CENTRALIA*     CLOUDY    76  76  97 S5        29.72S
SALEM*         CLOUDY    78  74  90 S5        29.72F
METROPOLIS*    CLOUDY    76  73  90 S5        29.73S
$$

ILZ067-068-072-073-078-083-087-091-231400-
SOUTHEAST ILLINOIS

CITY           SKY/WX    TMP DP  RH WIND       PRES   REMARKS
LAWRENCEVILLE  CLOUDY    76  74  93 S12       29.74S
FLORA*         CLOUDY   N/A N/A N/A S6        29.73S
FAIRFIELD*     HVY RAIN  74  74 100 S6        29.73R
HARRISBURG*    HVY RAIN  74  74  99 S5        29.73S
ROBINSON*      CLOUDY    76  73  92 S8        29.74S
CARMI*         HVY RAIN  74  73  99 S3        29.72F
$$

ABBREVIATIONS USED IN REMARKS
   TC - TEMPERATURE IN CELSIUS
  WCI - WIND CHILL INDEX
   HX - HEAT INDEX
  VSB - VISIBILITY
$$





USA.gov is the U.S. government's official web portal to all federal, state and local government web resources and services.